Probability
0 0 0 0 0 0 0 0 0 0 1 3 4 4 4 7 10 13 15 18 20 20 20 22 24 25 23 22 24 23 21 21 22 22 22 24 26 28 25 22 21 26 30 31
0 0 0 0 0 0 0 0 0 0 1 3 5 5 6 8 13 17 19 20 21 20 21 23 25 24 23 23 25 24 22 20 21 22 22 24 26 27 25 23 24 27 30 30
0 0 0 0 0 0 0 1 1 2 4 6 7 9 10 11 14 19 22 22 21 20 21 24 24 21 20 22 22 22 20 20 22 23 24 24 25 26 25 25 28 30 30 28
0 0 0 0 1 1 1 3 4 5 7 10 11 12 13 13 15 18 22 22 19 18 20 23 22 18 17 17 18 18 18 19 23 26 27 27 27 27 27 27 30 31 29 26
0 0 0 1 1 1 3 5 7 8 9 9 10 12 13 16 17 18 21 20 16 15 18 22 20 18 17 15 15 17 19 21 25 28 28 27 27 28 28 28 29 30 28 26
0 0 0 1 1 1 4 8 10 10 10 9 9 11 14 19 20 19 20 19 15 14 17 19 18 16 16 16 17 19 22 23 25 29 29 27 26 27 27 27 28 28 28 28
1 0 0 1 2 3 7 11 12 12 11 10 12 15 19 22 23 21 19 18 16 17 18 18 16 15 15 17 19 21 22 23 24 27 28 26 25 25 26 27 27 27 28 28
2 2 2 4 5 7 11 14 13 12 12 13 17 23 25 27 27 23 19 17 16 18 20 18 17 17 17 18 19 21 22 23 23 24 23 23 23 23 24 26 25 24 23 22
3 4 5 7 8 10 12 14 14 13 14 17 22 24 26 29 29 25 20 17 16 18 21 21 20 19 19 20 21 21 22 23 24 23 22 21 21 21 21 21 18 17 16 15
4 5 7 8 9 10 11 14 15 13 15 18 20 20 22 25 25 21 19 18 18 18 20 23 23 20 19 21 23 22 22 23 23 23 21 19 19 19 17 16 15 14 13 13
6 7 9 10 10 11 12 14 14 14 15 17 16 16 19 21 20 17 17 18 18 18 20 22 23 21 20 22 24 23 22 21 21 19 16 16 17 17 15 15 16 15 13 13
9 11 12 13 12 12 12 13 14 15 16 16 17 17 19 20 19 17 17 18 17 17 20 21 21 22 21 21 23 23 23 20 17 14 13 14 15 15 14 14 12 10 10 10
14 14 15 14 13 11 10 11 13 15 16 18 19 18 18 18 17 17 18 18 16 17 19 19 19 20 20 20 20 21 20 17 14 13 13 14 14 14 14 12 8 6 4 4
16 16 15 14 11 9 8 10 12 14 17 20 20 20 19 17 16 16 18 18 16 16 16 16 17 19 20 19 19 18 15 12 12 14 14 14 14 15 15 13 10 8 5 2
13 13 14 13 9 6 6 9 12 15 19 21 21 21 21 20 18 17 17 17 16 16 16 14 15 16 17 16 15 14 11 9 10 12 14 14 14 13 14 14 14 13 10 7
8 10 12 12 9 7 7 10 13 17 19 20 21 21 20 20 19 17 14 14 14 15 15 14 13 13 12 12 11 10 10 9 9 10 11 12 12 11 12 13 14 14 13 12
5 9 12 13 13 11 11 12 14 17 19 19 19 20 18 16 16 15 12 11 12 12 12 11 10 10 10 10 9 8 8 9 8 8 8 9 10 10 10 12 13 15 15 14
3 7 11 13 14 14 14 13 14 16 18 17 19 19 17 13 13 12 11 10 10 9 8 7 6 7 9 9 8 8 8 7 8 8 8 7 8 9 9 9 11 13 14 13
3 6 9 11 11 11 13 12 12 13 15 16 18 19 16 13 12 12 11 10 8 8 7 6 5 5 6 6 6 7 6 6 7 8 7 6 5 6 7 6 7 9 11 12
4 6 8 8 8 8 9 9 9 9 10 12 15 15 14 12 11 10 10 9 7 6 7 6 4 3 4 4 3 3 4 5 6 6 6 5 4 4 4 4 4 6 8 10
4 5 6 7 7 6 6 6 6 5 5 7 9 9 9 8 8 9 9 8 6 4 4 4 3 3 3 3 2 1 2 3 4 4 4 4 4 4 4 4 4 5 7 8
5 4 4 5 6 6 5 5 4 4 3 4 4 5 6 6 6 6 6 6 4 3 3 3 3 3 2 2 2 2 3 3 3 3 3 4 5 5 6 6 5 5 5 5
5 4 3 3 4 5 5 5 5 4 4 3 3 4 4 4 4 4 4 4 3 2 3 4 2 1 1 2 3 3 3 3 3 3 3 4 5 6 6 6 6 4 4 4
7 6 4 4 4 4 4 4 4 5 5 4 3 3 3 3 3 3 3 3 2 2 4 4 2 0 1 2 3 3 3 3 3 3 3 4 4 5 5 6 6 5 4 3
7 7 6 5 5 4 4 3 4 5 4 3 3 3 3 3 3 3 3 3 2 2 3 3 1 0 1 2 3 3 3 3 3 3 3 3 4 4 4 5 6 5 4 3
5 5 5 5 5 4 3 3 4 4 4 3 3 3 3 3 3 3 3 3 3 3 3 3 1 1 1 3 3 3 3 3 3 3 3 3 3 3 3 4 5 4 3 3
4 4 4 4 5 4 3 4 5 5 4 3 3 3 3 3 3 3 3 3 3 3 3 3 2 2 2 3 3 3 3 3 3 3 3 3 3 3 3 3 5 4 3 3
Wind_Speed
9 6 6 8 10 11 12 11 10 7 7 3 1 2 2 2 3 3 3 3 4 4 4 4 4 4 4 4 4 4 5 4 4 4 4 4 3 3 3 3 3 3 3 3
10 9 9 10 10 10 11 11 11 9 6 1 0 2 2 3 3 3 3 3 3 3 4 4 4 4 5 4 4 5 5 5 4 4 4 4 4 4 3 3 3 3 4 4
10 9 11 13 11 10 9 8 9 9 4 2 2 2 2 2 2 2 3 2 2 2 3 3 4 4 4 4 4 5 5 4 5 5 5 4 5 4 4 3 3 3 3 4
9 9 15 7 4 6 7 5 5 4 2 2 2 1 1 1 2 2 2 2 2 2 3 3 3 4 4 4 4 4 4 4 4 4 5 4 4 3 3 3 3 4 4 4
9 12 11 6 4 5 7 6 3 3 2 2 2 3 3 3 2 2 2 2 2 2 3 3 3 3 4 4 4 4 4 4 4 4 4 4 4 3 3 3 3 4 4 4
10 12 13 5 3 3 7 7 2 2 2 2 4 5 2 4 3 2 2 2 2 2 3 3 2 2 3 3 3 3 3 3 3 4 4 4 3 3 3 3 3 4 3 3
12 11 7 1 2 5 9 2 2 1 2 2 2 2 3 2 2 2 2 3 3 2 2 2 2 2 2 2 2 2 2 2 2 3 3 3 3 3 3 3 3 2 2 2
10 12 6 3 3 3 1 2 1 1 1 1 1 3 2 2 2 2 2 2 3 3 2 2 1 2 2 1 1 1 2 2 2 2 2 2 3 3 3 3 3 3 3 2
5 2 3 2 1 1 1 0 0 1 1 1 1 2 2 2 2 1 2 2 2 3 2 2 1 1 1 1 1 2 2 2 2 2 1 1 2 3 4 4 3 2 2 2
4 3 2 2 1 0 0 1 1 1 1 1 2 2 1 1 2 1 2 2 2 2 2 2 1 0 1 1 2 2 2 2 2 2 2 2 2 2 2 2 2 2 2 2
5 4 3 3 2 1 1 1 1 0 1 1 2 2 2 2 2 1 2 2 2 2 2 2 1 1 1 1 2 2 3 2 2 2 2 1 1 0 1 1 1 2 2 1
5 3 3 2 1 2 2 2 1 1 1 1 1 2 2 1 1 2 2 2 2 2 2 2 1 1 1 1 2 2 3 3 2 2 2 2 1 1 2 0 2 1 1 2
4 4 3 3 4 4 3 2 2 2 2 2 2 2 2 2 2 2 2 2 2 2 2 1 1 1 0 0 1 2 2 2 2 3 3 3 2 2 1 1 2 2 2 2
2 3 4 4 4 3 3 3 2 2 2 2 2 2 2 2 2 2 1 1 2 2 1 1 0 0 0 1 2 2 3 2 3 2 2 3 3 3 3 2 2 2 3 4
4 5 5 4 4 4 4 3 3 3 2 2 2 2 2 1 1 1 1 1 1 1 1 1 1 1 0 1 2 3 3 3 2 2 3 3 3 3 2 3 2 2 2 3
3 4 4 5 5 5 5 4 4 3 3 2 2 2 1 1 1 0 1 1 2 2 1 1 1 1 2 2 3 3 3 2 3 3 3 2 3 3 3 3 3 2 2 2
3 3 3 4 4 4 4 3 3 3 3 3 2 2 2 1 1 1 1 1 1 1 1 2 2 2 2 2 3 3 3 2 4 4 3 2 2 3 3 3 3 3 2 1
4 5 4 5 4 3 3 3 2 2 2 2 2 2 2 2 2 2 2 1 1 1 1 2 2 2 2 2 3 3 3 2 3 3 3 2 2 3 3 3 3 3 2 2
4 4 4 4 4 3 3 3 2 2 2 2 2 2 2 2 1 2 2 2 2 2 1 2 1 2 2 2 3 3 3 3 3 2 2 2 4 4 3 3 3 3 3 2
3 3 3 3 3 3 3 2 2 2 2 2 2 2 1 1 1 2 2 2 2 1 1 1 2 2 2 2 3 3 2 3 3 3 3 3 3 3 3 3 3 3 3 3
3 3 3 3 3 3 3 3 2 2 2 2 2 2 2 2 2 2 2 2 1 1 1 1 2 2 1 1 3 3 3 3 3 3 3 3 3 3 3 3 4 4 3 3
3 3 3 3 3 3 3 3 3 2 2 2 3 2 2 1 2 2 3 2 1 0 2 2 1 1 1 2 3 3 3 4 3 3 3 3 3 4 4 4 4 4 3 3
3 3 3 3 2 2 2 2 2 2 3 3 2 2 2 2 2 3 2 1 1 1 3 2 1 1 2 4 3 3 3 4 4 3 3 4 4 4 4 4 4 4 3 3
3 3 2 2 2 2 2 2 1 2 2 3 2 2 2 2 2 2 1 1 1 2 2 0 1 2 4 3 3 3 3 3 3 3 3 4 4 4 4 4 3 3 3 3
3 3 2 1 1 1 1 1 2 2 2 2 2 2 3 2 2 2 1 1 1 3 2 2 4 4 5 3 3 3 3 3 3 4 4 4 3 3 3 3 3 2 2 2
2 2 2 2 2 2 2 1 1 1 1 1 1 1 2 1 2 2 2 2 3 3 3 2 3 4 3 3 3 4 4 3 4 4 4 3 3 3 3 3 2 2 1 2
2 1 1 2 1 1 2 2 2 2 1 1 2 1 1 2 2 2 2 2 2 3 3 3 3 3 3 3 3 3 4 3 3 3 3 3 3 2 2 2 2 1 1 1
Wind_Direction
254 256 238 229 226 225 238 253 263 264 263 269 223 211 178 159 158 144 137 149 155 169 165 167 173 178 179 179 178 183 184 193 195 202 207 211 204 210 215 225 228 229 235 234
236 236 235 238 235 231 235 245 251 256 260 329 179 154 155 162 168 160 144 135 145 159 161 168 177 181 177 180 183 185 187 188 189 197 198 200 207 213 216 221 232 228 229 233
234 223 233 233 231 232 230 243 257 257 256 197 189 180 183 182 178 152 132 133 146 159 168 164 169 171 172 178 183 187 193 192 191 195 199 203 210 206 214 222 227 228 228 230
240 224 236 235 219 231 231 241 255 264 249 222 213 173 117 130 130 128 125 133 140 154 159 165 158 165 170 175 181 187 192 193 194 195 196 199 206 210 217 215 220 225 231 236
239 235 236 210 197 218 227 227 247 250 230 204 162 167 136 96 91 100 114 124 133 148 145 139 146 159 170 175 175 190 197 197 198 198 196 196 197 207 220 229 231 228 227 233
235 242 239 215 168 234 240 223 184 229 207 189 208 225 136 85 70 86 107 113 111 124 119 114 122 150 175 178 179 190 196 198 198 202 198 195 196 206 214 222 231 236 228 227
236 240 240 89 145 204 226 211 109 219 216 210 240 344 66 74 70 75 102 105 106 108 109 114 130 153 179 177 180 190 194 193 192 204 204 192 193 201 208 213 218 234 238 229
234 238 223 100 180 220 14 41 112 157 211 223 75 78 97 96 90 84 108 117 115 112 113 115 144 176 193 192 189 177 179 186 185 195 215 175 180 196 202 206 197 203 212 231
248 262 52 107 107 56 25 6 55 237 227 205 136 121 117 112 100 97 123 130 140 136 128 122 141 188 197 166 171 177 166 163 164 163 164 188 194 194 200 204 217 216 213 215
233 204 173 148 132 164 342 331 323 260 210 197 166 144 149 143 126 128 135 135 145 141 137 126 119 146 157 147 167 169 160 153 154 160 161 172 222 226 231 228 221 219 224 219
233 229 216 200 194 231 283 288 295 251 232 200 167 167 178 166 149 152 148 143 153 142 138 130 124 123 148 142 166 168 164 169 172 169 162 183 201 319 267 275 307 270 267 260
238 207 239 220 260 268 266 271 277 257 238 220 191 182 186 168 153 166 159 143 152 155 149 136 140 144 118 150 187 187 185 187 196 197 183 202 186 153 47 23 74 52 298 280
279 274 274 266 274 264 263 275 275 252 241 238 226 203 194 167 150 146 151 156 159 162 155 146 140 135 90 237 221 218 220 215 220 215 208 216 215 210 199 163 174 195 218 234
251 260 249 242 254 261 260 267 269 257 249 236 215 201 193 170 144 140 154 158 157 162 168 163 144 74 5 263 240 235 235 217 229 223 230 235 235 234 224 220 207 193 182 189
257 256 250 249 256 254 245 234 228 232 231 225 212 197 181 170 160 148 168 163 157 181 192 199 236 280 283 260 253 248 250 238 233 244 242 239 239 236 229 224 225 217 196 164
276 255 241 238 241 241 238 233 228 224 225 225 218 212 217 204 200 180 215 211 215 233 243 258 277 275 254 251 252 244 235 228 234 241 246 233 226 230 230 226 228 230 233 204
265 258 259 256 255 250 249 250 247 237 233 233 233 227 223 204 205 218 236 244 253 261 257 266 277 281 266 250 255 254 245 210 212 230 235 234 235 239 239 241 239 237 237 201
278 274 273 269 263 256 255 257 242 238 242 240 236 222 220 221 232 240 240 237 232 262 280 285 287 274 261 260 265 267 256 239 227 233 238 240 246 248 247 245 245 242 237 186
294 291 284 283 277 260 246 238 232 238 235 225 214 223 235 241 251 262 253 243 242 253 291 330 340 257 255 263 265 245 253 241 231 228 233 224 235 240 244 247 246 244 242 226
305 295 287 277 264 255 247 239 237 235 223 207 203 212 228 264 277 272 261 261 276 320 300 297 264 261 256 256 264 253 254 250 245 242 241 242 243 244 245 247 250 251 245 239
302 297 289 274 262 256 250 248 243 236 232 222 215 218 229 249 266 272 265 268 304 1 291 237 239 251 249 263 240 247 246 245 242 243 247 248 249 252 254 257 257 257 254 250
300 290 278 267 256 255 252 249 241 229 221 218 219 218 223 238 257 270 272 285 299 315 263 256 261 2 327 271 245 245 239 240 241 244 249 256 256 253 253 256 256 255 255 255
306 295 282 269 260 261 259 249 230 218 218 222 223 226 243 262 268 266 264 267 264 243 257 269 353 4 281 255 248 240 244 248 248 247 250 255 259 260 259 255 251 251 251 252
303 301 297 285 263 246 243 244 230 225 226 238 231 230 241 243 252 263 289 186 236 240 252 176 166 224 246 252 259 256 254 256 257 256 257 256 257 260 264 264 259 251 252 257
307 304 300 287 260 254 236 216 207 205 220 226 226 224 239 246 260 270 271 242 210 236 241 187 198 225 244 254 252 255 258 267 273 271 260 260 261 264 268 266 265 260 257 258
294 295 306 292 299 290 271 251 241 227 225 232 243 242 248 241 240 238 234 220 217 236 250 228 212 222 250 264 266 267 263 249 244 249 257 262 262 260 259 262 262 265 264 261
262 259 254 260 260 271 279 270 261 256 253 250 252 243 244 247 241 235 237 231 220 230 243 249 245 244 250 258 264 267 269 265 260 264 265 260 255 253 250 250 256 254 252 252